EDT,Max TemperatureF,Mean TemperatureF,Min TemperatureF,Max Dew PointF,MeanDew PointF,Min DewpointF,Max Humidity, Mean Humidity, Min Humidity, Max Sea Level PressureIn, Mean Sea Level PressureIn, Min Sea Level PressureIn, Max VisibilityMiles, Mean VisibilityMiles, Min VisibilityMiles, Max Wind SpeedMPH, Mean Wind SpeedMPH, Max Gust SpeedMPH,PrecipitationIn, CloudCover, Events, WindDirDegrees
2012-8-1,91,78,64,67,63,59,93,65,34,29.90,29.87,29.83,10,9,4,7,1,,0.00,2,,350
2012-8-2,93,75,59,64,59,55,93,59,29,29.93,29.90,29.86,10,9,4,7,1,,0.00,0,,140
2012-8-3,93,78,64,70,64,61,93,67,38,30.00,29.94,29.89,10,8,4,14,3,16,0.00,0,,175
2012-8-4,91,80,69,73,70,65,100,77,55,30.07,30.01,29.94,10,9,1,16,8,20,0.31,4,Rain,168
2012-8-5,84,76,69,75,72,69,100,86,67,30.13,30.05,29.99,10,6,0,14,7,21,0.41,6,Fog-Rain-Thunderstorm,217
2012-8-6,86,70,57,70,61,56,100,74,37,30.14,30.10,30.02,10,8,1,6,1,,0.00,1,,74
2012-8-7,89,72,55,62,58,53,93,64,30,30.04,30.00,29.95,10,10,9,9,2,18,0.01,0,,271
2012-8-8,93,76,61,74,64,59,93,72,33,29.99,29.95,29.91,10,8,4,17,3,30,0.08,2,Rain-Thunderstorm,225
2012-8-9,89,77,66,67,65,62,100,82,46,30.00,29.89,29.78,10,6,2,21,4,28,0.20,3,Rain-Thunderstorm,211
2012-8-10,79,69,61,67,62,52,100,79,55,29.83,29.75,29.71,10,9,3,17,6,24,0.13,6,Rain,239
2012-8-11,72,65,59,61,56,51,94,78,61,30.00,29.91,29.83,10,10,4,14,8,18,0.02,8,Rain,250
2012-8-12,81,66,53,62,56,47,100,77,33,30.04,30.02,29.99,10,7,0,10,2,,0.00,2,Fog,244
2012-8-13,84,72,60,62,58,54,93,68,35,30.04,29.99,29.93,10,10,9,9,2,,0.00,3,,185
2012-8-14,82,70,59,66,63,57,94,80,52,29.94,29.90,29.86,10,8,2,12,3,18,0.07,5,Rain-Thunderstorm,252
2012-8-15,82,71,60,64,59,54,100,76,37,30.00,29.96,29.92,10,6,0,9,1,16,0.00,2,Fog,342
2012-8-16,89,71,55,61,58,55,97,62,35,30.03,29.96,29.84,10,9,6,13,4,22,0.00,0,,213
2012-8-17,82,72,55,63,58,50,90,64,36,29.96,29.91,29.86,10,10,9,12,4,,0.00,5,,296
2012-8-18,81,64,50,56,51,46,93,65,32,30.00,29.96,29.90,10,10,8,6,1,,0.00,1,,149
2012-8-19,82,70,57,56,53,47,90,61,29,29.94,29.89,29.82,10,10,10,9,1,17,0.00,2,,354
2012-8-20,82,65,48,55,49,43,96,71,25,30.00,29.94,29.90,10,7,0,9,2,,0.00,1,Fog,341
2012-8-21,81,64,48,59,52,47,93,68,35,30.12,30.05,30.01,10,9,5,7,1,,0.02,1,Rain,346
2012-8-22,84,67,50,56,52,48,93,64,31,30.17,30.12,30.08,10,9,4,6,1,,0.00,1,,192
2012-8-23,88,68,50,58,51,46,96,69,26,30.18,30.14,30.09,10,6,1,7,1,,0.00,0,,203
2012-8-24,90,70,51,60,53,50,94,73,29,30.16,30.12,30.06,10,6,0,10,1,,0.00,0,Fog,158
2012-8-25,91,73,55,62,56,53,93,61,28,30.16,30.12,30.08,10,8,4,10,3,,0.00,0,,138
2012-8-26,91,72,57,60,57,53,93,59,30,30.19,30.12,30.05,10,9,5,9,5,,0.00,0,,156
2012-8-27,88,76,63,72,65,58,93,71,46,30.07,30.01,29.95,10,9,6,17,5,23,0.04,4,Rain-Thunderstorm,224
2012-8-28,89,74,60,68,62,55,100,82,33,30.09,30.04,29.99,10,4,0,8,1,,0.01,3,Fog,22
2012-8-29,84,67,50,60,51,48,94,73,31,30.10,30.07,30.03,10,7,0,10,1,,0.00,1,Fog,39
2012-8-30,88,68,48,55,51,47,93,62,27,30.14,30.10,30.06,10,10,7,8,1,,0.00,0,,173
2012-8-31,95,74,55,74,65,51,94,73,39,30.17,30.11,30.06,10,8,0,30,5,45,0.50,2,Rain-Thunderstorm,243